18.05.2024;08:00;51
18.05.2024;07:00;55
18.05.2024;06:00;57
18.05.2024;05:00;50
18.05.2024;04:00;47
18.05.2024;03:00;42
18.05.2024;02:00;42
18.05.2024;01:00;52
18.05.2024;00:00;48
17.05.2024;23:00;49
17.05.2024;22:00;62
17.05.2024;21:00;62
17.05.2024;20:00;62
17.05.2024;19:00;59
17.05.2024;18:00;53
17.05.2024;17:00;53
17.05.2024;16:00;58
17.05.2024;15:00;61
17.05.2024;14:00;72
17.05.2024;13:00;66
17.05.2024;12:00;70
17.05.2024;11:00;66
17.05.2024;10:00;67
17.05.2024;09:00;68
17.05.2024;08:00;69
17.05.2024;07:00;74
17.05.2024;06:00;75
17.05.2024;05:00;68
17.05.2024;04:00;69
17.05.2024;03:00;62
17.05.2024;02:00;65
17.05.2024;01:00;65
17.05.2024;00:00;73
16.05.2024;23:00;85
16.05.2024;22:00;81
16.05.2024;21:00;86
16.05.2024;20:00;72
16.05.2024;19:00;98
16.05.2024;18:00;92
16.05.2024;17:00;108
16.05.2024;16:00;99
16.05.2024;15:00;91
16.05.2024;14:00;91
16.05.2024;13:00;86
16.05.2024;12:00;72
16.05.2024;11:00;72
16.05.2024;10:00;67
16.05.2024;09:00;60
